Location: Malanoce
(44.2500°N, 7.4667°E)
Time: 21:22:15
(UTC+00:00)

Cosmos 304 Rocket - Pass Details

Date: 17 November 2025
Orbit: 668 x 677 km, 74.0° (Epoch: 11 December)

Event Time Altitude Azimuth Distance (km) Brightness Sun altitude
Rises 18:05:34 0° 200° (SSW) 2,999 7.4 -22.1°
Reaches altitude 10° 18:07:51 10° 201° (SSW) 2,091 6.6 -22.5°
Maximum altitude 18:12:34 85° 291° (WNW) 680 3.7 -23.4°
Enters shadow 18:13:54 48° 15° (NNE) 886 4.1 -23.6°
